WESTFORD NEEDLES, 2362

Orbit data source: Space-Track

WESTFORD NEEDLES, 2362 is space debris originally from a launch on Thu, 09 May 1963 UTC launched from the Air Force Western Test Range (AFWTR). Debris objects in space refer to the collection of defunct objects orbiting the Earth. Examples of debris include non-operational satellites, rocket bodies, and fragments generated from explosions, collisions, or faulty payload assembly.

Loading next visibility...
Identifier
2362, 1963-014M
Orbit
Active
Country
Flag of USUS
Related business
Manufacturer
Unknown
Mission
Spacecraft
Bus & Motor
Unknown
Mass
Unknown
Launch date (UTC)
1963-05-09 (63 years ago)
Launch vehicle
Unknown
Launch site
Air Force Western Test Range (AFWTR)
Object type
Payload
Rocket body
Debris
Shape & HBR
Unknown shape, 0.3 m
Radar Cross Section
Medium (>0.1 m² and <1 m²)

Expand to show TLE details & history
Last TLE update: 2 days ago

TLE from 2 days ago
0 WESTFORD NEEDLES
1 02362U 63014M   25352.10230293  .00001103  00000-0  86027-2 0  9994
2 02362  85.2233 354.8266 2589408 245.1699  85.9202  8.85968861990726
Epoch: 2025-12-18T02:27Z
TLE epoch observation values (Epoch: 2025-12-18T02:27:18.973Z)
Latitude
-0.00001°
Longitude
-128.96509°
Altitude
3,955.55 km
Speed
6.063 km/s
True Right ascension
23h 39m 18s
True Declination
0° 00' 00"
Sunlit
Object was in daylight at epoch
Visualization orbit readout
Latitude
Unknown
Longitude
Unknown
Altitude
Unknown
Speed
Unknown
Apparent Right ascension
Unknown
Apparent Declination
Unknown
Sunlit
N/A
Visualization observer readout
Local Sidereal Time
13:42:13
Azimuth
Unknown
Elevation
Unknown
Doppler factor
Unknown
Orbital elements
Apogee altitude
6,039.006 km
Perigee altitude
931.053 km
Semi-major axis
9,863.167 km
Eccentricity
0.25894
Inclination
85.2233°
RAAN
354.8266°
Arg. of periapsis
245.1699°
True anomaly
114.92347°
Mean anomaly
85.9202°
Eccentric anomaly
100.50762°
Mean motion
2.21574 °/min
Orbital period
162.47 mins
BSTAR
0.0086027
Loading maneuver chart data...
Computing Atmospheric mass density...

Documentation

Showing up to 5 results
|